Weather History for KORL - December, 2012

Change the Weather History Date:

Monday, December 17, 2012

  Actual Average Record
Temperature  
Mean Temperature 72 °F -  
Max Temperature 81 °F 68 °F 81 °F (2001)
Min Temperature 64 °F 50 °F 37 °F (2007)
Cooling Degree Days 8    
Growing Degree Days 22 (Base 50)    
Moisture  
Dew Point 64 °F    
Average Humidity 87    
Maximum Humidity 100    
Minimum Humidity 50    
Precipitation  
Precipitation 0.01 in - - ()
Sea Level Pressure  
Sea Level Pressure 29.95 in    
Wind  
Wind Speed 5 mph (SSW)    
Max Wind Speed 15 mph    
Max Gust Speed -    
Visibility 6 miles    
Events Fog    
Averages and records for this station are not official NWS values.
T = Trace of Precipitation, MM = Missing Value Source: NWS Daily Summary

Daily Weather History Graph

Daily Weather History Graph

Search for Another Location

Airport or City:

Trip Planner

Search our weather history database for the weather conditions in past years. The results will help you decide how hot, cold, wet, or windy it might be!

Date:

Astronomy

Dec. 17, 2012 Rise Set
Actual Time 7:11 AM EST 5:31 PM EST
Civil Twilight 6:45 AM EST 5:57 PM EST
Nautical Twilight 6:16 AM EST 6:27 PM EST
Astronomical Twilight 5:47 AM EST 6:55 PM EST
Moon 10:39 AM EST (12/17) 10:29 PM EST (12/17)
Length of Visible Light 11h 11m
Length of Day
10h 19m
Waxing Crescent, 24% of the Moon is Illuminated
Dec 17
Waxing Crescent
Dec 20
First Quarter
Dec 28
Full
Jan 4
Last Quarter
Jan 11
New

Hourly Weather History & Observations

Time (EST) Temp. Heat Index Dew Point Humidity Pressure Visibility Wind Dir Wind Speed Gust Speed Precip Events Conditions
12:53 AM 66.0 °F - 64.9 °F 96% 30.00 in 10.0 mi SSW 5.8 mph - N/A   Clear
1:53 AM 66.9 °F - 64.9 °F 93% 29.98 in 10.0 mi South 5.8 mph - N/A   Clear
2:53 AM 66.9 °F - 64.9 °F 93% 29.98 in 10.0 mi SSW 5.8 mph - N/A   Clear
3:46 AM 66.2 °F - 64.4 °F 94% 29.96 in 10.0 mi South 3.5 mph - N/A   Partly Cloudy
3:53 AM 66.0 °F - 64.9 °F 96% 29.97 in 9.0 mi SSW 3.5 mph - N/A   Partly Cloudy
4:00 AM 66.2 °F - 64.4 °F 94% 29.95 in 8.0 mi Calm Calm - N/A   Scattered Clouds
4:07 AM 66.2 °F - 64.4 °F 94% 29.95 in 8.0 mi South 3.5 mph - N/A   Mostly Cloudy
4:19 AM 66.2 °F - 64.4 °F 94% 29.95 in 8.0 mi SW 4.6 mph - N/A   Scattered Clouds
4:48 AM 64.4 °F - 64.4 °F 100% 29.95 in 2.0 mi Calm Calm - N/A   Mostly Cloudy
4:53 AM 64.9 °F - 64.9 °F 100% 29.96 in 1.0 mi Calm Calm - N/A   Mostly Cloudy
4:58 AM 64.4 °F - 64.4 °F 100% 29.95 in 0.5 mi Calm Calm - N/A Fog Fog
5:11 AM 64.4 °F - 62.6 °F 94% 29.94 in 0.2 mi Calm Calm - N/A Fog Fog
5:21 AM 64.4 °F - 62.6 °F 94% 29.94 in 0.5 mi Calm Calm - N/A Fog Fog
5:48 AM 64.4 °F - 64.4 °F 100% 29.94 in 1.2 mi SSW 3.5 mph - N/A   Overcast
5:53 AM 66.0 °F - 64.9 °F 96% 29.95 in 0.8 mi SSW 4.6 mph - N/A   Mist
6:06 AM 64.4 °F - 64.4 °F 100% 29.95 in 0.2 mi SSW 3.5 mph - N/A Fog Fog
6:39 AM 64.4 °F - 64.4 °F 100% 29.95 in 0.5 mi South 5.8 mph - N/A Fog Fog
6:53 AM 64.9 °F - 64.9 °F 100% 29.96 in 0.8 mi South 5.8 mph - N/A   Mist
7:13 AM 64.4 °F - 64.4 °F 100% 29.96 in 0.5 mi SE 3.5 mph - N/A Fog Fog
7:20 AM 64.4 °F - 64.4 °F 100% 29.96 in 0.2 mi Calm Calm - N/A Fog Fog
7:53 AM 64.9 °F - 64.0 °F 97% 29.97 in 0.2 mi Calm Calm - N/A Fog Fog
8:40 AM 66.2 °F - 64.4 °F 94% 29.96 in 0.8 mi SSE 3.5 mph - N/A   Mist
8:53 AM 66.0 °F - 64.9 °F 96% 29.98 in 0.5 mi South 4.6 mph - 0.01 in Fog Fog
9:14 AM 66.2 °F - 66.2 °F 100% 29.97 in 0.5 mi South 5.8 mph - N/A Fog Fog
9:24 AM 66.2 °F - 66.2 °F 100% 29.97 in 1.2 mi SSW 4.6 mph - N/A   Overcast
9:37 AM 66.2 °F - 66.2 °F 100% 29.98 in 3.0 mi SSW 4.6 mph - N/A   Overcast
9:53 AM 66.9 °F - 66.0 °F 97% 29.99 in 7.0 mi SW 4.6 mph - N/A   Mostly Cloudy
10:07 AM 69.8 °F - 66.2 °F 88% 29.97 in 10.0 mi South 4.6 mph - N/A   Partly Cloudy
10:53 AM 73.0 °F - 64.9 °F 76% 29.96 in 10.0 mi South 6.9 mph - N/A   Clear
11:53 AM 77.0 °F - 63.0 °F 62% 29.94 in 10.0 mi SW 11.5 mph - N/A   Clear
12:53 PM 80.1 °F 81.2 °F 62.1 °F 54% 29.91 in 10.0 mi SW 12.7 mph - N/A   Clear
1:53 PM 80.1 °F 81.1 °F 61.0 °F 52% 29.89 in 10.0 mi SW 15.0 mph - N/A   Clear
2:53 PM 81.0 °F 81.7 °F 61.0 °F 50% 29.88 in 10.0 mi SW 15.0 mph - N/A   Mostly Cloudy
3:53 PM 80.1 °F 81.1 °F 61.0 °F 52% 29.88 in 10.0 mi WSW 11.5 mph - N/A   Mostly Cloudy
4:53 PM 79.0 °F - 59.0 °F 50% 29.90 in 10.0 mi West 11.5 mph - N/A   Mostly Cloudy
7:53 PM 73.0 °F - 59.0 °F 61% 29.95 in 10.0 mi WSW 8.1 mph - N/A   Clear
8:53 PM 70.0 °F - 60.1 °F 71% 29.96 in 10.0 mi SW 5.8 mph - N/A   Scattered Clouds
9:53 PM 68.0 °F - 60.1 °F 76% 29.95 in 10.0 mi SSW 4.6 mph - N/A   Clear
10:53 PM 68.0 °F - 63.0 °F 84% 29.94 in 10.0 mi SSW 5.8 mph - N/A   Clear
11:53 PM 68.0 °F - 64.9 °F 90% 29.89 in 10.0 mi South 11.5 mph - N/A   Clear